{"data":{"norad_id":57787,"intl_designator":"2023-134S","name":"STARLINK-30378","alt_names":[],"object_type":"PAYLOAD","status":"ACTIVE","operator":null,"country":"US","launch_date":"2023-09-04","launch_site_code":"AFETR","launch_vehicle":null,"mission":null,"orbit_class":"UNKNOWN","rcs_meters":null,"size_class":null,"mass_kg":null,"dimensions":null,"purposes":["comms"],"wikipedia_slug":null,"has_3d_model":false,"image_url":null,"decayed_at":null,"tle_current":{"epoch":"2026-09-19T11:41:15.859968Z","epoch_age_seconds":218814,"freshness":"STALE","line1":"1 57787U 23134S   26262.48698912  .00000711  00000+0  35363-4 0  9994","line2":"2 57787  43.0031 180.1860 0000299 278.9693  81.1125 15.27574041169140","mean_motion":15.27574041,"eccentricity":2.99e-5,"inclination_deg":43.0031,"raan_deg":180.186,"arg_perigee_deg":278.9693,"mean_anomaly_deg":81.1125,"bstar":3.5363e-5,"rev_number":16914,"period_min":94.267116444145,"perigee_km":482.86178948961,"apogee_km":483.27208948519,"semimajor_km":6861.2039394874,"source":"CELESTRAK","updated_at":"2026-09-21T09:00:33.705472Z"}}}